{"data":{"norad_id":65051,"intl_designator":"2025-162J","name":"HULIANWANG DIGUI-48","alt_names":[],"object_type":"PAYLOAD","status":"ACTIVE","operator":null,"country":"PRC","launch_date":"2025-07-30","launch_site_code":"WSC","launch_vehicle":null,"mission":null,"orbit_class":"UNKNOWN","rcs_meters":null,"size_class":null,"mass_kg":null,"dimensions":null,"purposes":[],"wikipedia_slug":null,"has_3d_model":false,"image_url":null,"decayed_at":null,"tle_current":{"epoch":"2026-09-21T18:43:10.306560Z","epoch_age_seconds":57680,"freshness":"FRESH","line1":"1 65051U 25162J   26264.77998040 -.00000083  00000+0  87746-4 0  9994","line2":"2 65051  50.0032 279.0279 0000728 288.6239  71.4554 13.29326585 56214","mean_motion":13.29326585,"eccentricity":7.28e-5,"inclination_deg":50.0032,"raan_deg":279.0279,"arg_perigee_deg":288.6239,"mean_anomaly_deg":71.4554,"bstar":8.7746e-5,"rev_number":5621,"period_min":108.32552483707,"perigee_km":1148.7563657087,"apogee_km":1149.8523611712,"semimajor_km":7527.44136344,"source":"CELESTRAK","updated_at":"2026-09-22T09:00:30.092097Z"}}}